パンスターズ彗星

348P/PanSTARRS (2022)

English version
Home page
Updated on May 29, 2022

---------------------------------------------------------------------

・ プロフィール

・ 写真集

・ 軌道要素

Epoch 2022 Jan. 21.0 TT = JDT 2459600.5
T 2022 Feb. 12.51564 TT                                 Rudenko
q   2.1838676            (2000.0)            P               Q
n   0.17626322     Peri.  135.66050     +0.00006939     -0.97480545
a   3.1503701      Node   312.94142     +0.81172621     +0.13032858
e   0.3067902      Incl.   17.74020     +0.58403814     -0.18102154
P   5.59
From 81 observations 2009 Sept. 18-2022 Jan. 22, mean residual 0".6.

・ 光度変化

        m1 = 14.0 + 5 logΔ + 10.0 log r

---------------------------------------------------------------------

軌道要素はM.P.E.C. 2022-C56に掲載されたものです。
光度グラフはComet for Windowsで作成したものです。

---------------------------------------------------------------------

Copyright(C) Seiichi Yoshida (comet@aerith.net). All rights reserved.